Location: Madison
(43.0730°N, 89.3819°W)
Time: 18:13:03
(UTC-06:00)

ISS - Pass Details

Date: 24 January 2019
Orbit: 403 x 411 km, 51.6° (Epoch: 22 February)

Event Time Altitude Azimuth Distance (km) Brightness Sun altitude
Rises 18:25:44 0° 239° (WSW) 2,323 1.4 -15.8°
Reaches altitude 10° 18:27:48 10° 240° (WSW) 1,467 0.2 -16.1°
Maximum altitude 18:31:06 79° 326° (NNW) 421 -3.8 -16.7°
Enters shadow 18:32:03 43° 47° (NE) 585 -3.5 -16.9°
